Powrót do katalogu

NTS-3

AktywnyNawigacjaGEO
NORAD 65160·PAYLOAD·🇺🇸 United States

Wystrzelony Aug 13, 2025 z Cape Canaveral Space Force Station

Loading…

TLE

ŚwieżeSource: Space-Track

Epoka: Sep 14, 2026, 10:08 UTC

1 65160U 25173A   26257.42285115 -.00000266  00000-0  00000-0 0  9991
2 65160   3.4592  70.7562 0001085 131.0593 254.5905  1.00660646   937

Śledź NTS-3 w czasie rzeczywistym z AllMySat

Download on the App Store